Weather History for Fort Campbell, KY

Change the Weather History Date:

Tuesday, December 25, 2012

  Actual Average Record
Temperature  
Mean Temperature 34 °F -  
Max Temperature 37 °F 43 °F 57 °F (2011)
Min Temperature 32 °F 26 °F 8 °F (2000)
Degree Days  
Heating Degree Days 30    
Moisture  
Dew Point 33 °F    
Average Humidity 91    
Maximum Humidity 100    
Minimum Humidity 73    
Precipitation  
Precipitation 0.29 in - - ()
Sea Level Pressure  
Sea Level Pressure 29.89 in    
Wind  
Wind Speed 15 mph (NE)    
Max Wind Speed 30 mph    
Max Gust Speed 36 mph    
Visibility 8 miles    
Events Rain    
Averages and records for this station are not official NWS values.
T = Trace of Precipitation, MM = Missing Value Source: NWS Daily Summary

Daily Weather History Graph

Daily Weather History Graph

Search for Another Location

Airport:

Trip Planner

Search our weather history database for the weather conditions in past years. The results will help you decide how hot, cold, wet, or windy it might be!

Date:

Astronomy

Dec. 25, 2012 Rise Set
Actual Time 7:00 AM CST 4:40 PM CST
Civil Twilight 6:31 AM CST 5:09 PM CST
Nautical Twilight 5:59 AM CST 5:41 PM CST
Astronomical Twilight 5:27 AM CST 6:13 PM CST
Moon 2:47 PM CST (12/25) 4:33 AM CST (12/25)
Length of Visible Light 10h 37m
Length of Day
9h 39m
Waxing Gibbous, 94% of the Moon is Illuminated
Dec 25
Waxing Gibbous
Dec 28
Full
Jan 4
Last Quarter
Jan 11
New
Jan 18
First Quarter

Hourly Weather History & Observations

Time (CST) Temp. Windchill Dew Point Humidity Pressure Visibility Wind Dir Wind Speed Gust Speed Precip Events Conditions
12:55 AM 33.4 °F 24.8 °F 31.1 °F 91% 30.06 in 10.0 mi NNE 11.5 mph - N/A   Overcast
1:55 AM 33.6 °F 25.0 °F 31.1 °F 90% 30.07 in 10.0 mi North 11.5 mph - N/A   Overcast
2:55 AM 34.0 °F 27.2 °F 31.6 °F 91% 30.07 in 10.0 mi NE 8.1 mph - N/A   Overcast
3:55 AM 33.3 °F 25.1 °F 30.2 °F 89% 30.09 in 10.0 mi NE 10.4 mph - N/A   Overcast
4:20 AM 33.8 °F 25.3 °F 30.2 °F 87% 30.08 in 10.0 mi NE 11.5 mph - N/A   Overcast
4:55 AM 33.1 °F 24.9 °F 30.2 °F 89% 30.09 in 10.0 mi NNE 10.4 mph - N/A   Overcast
5:37 AM 33.8 °F 25.3 °F 30.2 °F 87% 30.08 in 10.0 mi NNE 11.5 mph - N/A   Overcast
5:55 AM 33.3 °F 23.2 °F 30.2 °F 89% 30.07 in 10.0 mi NNE 15.0 mph - N/A   Overcast
6:00 AM 33.8 °F 24.3 °F 30.2 °F 87% 30.08 in 10.0 mi NE 13.8 mph - N/A   Overcast
6:55 AM 33.3 °F 24.6 °F 29.1 °F 85% 30.08 in 10.0 mi NE 11.5 mph - N/A   Overcast
7:55 AM 32.9 °F 25.3 °F 28.8 °F 85% 30.11 in 10.0 mi NE 9.2 mph - N/A   Overcast
8:08 AM 33.8 °F 25.8 °F 28.4 °F 81% 30.11 in 10.0 mi NE 10.4 mph - N/A   Scattered Clouds
8:55 AM 33.6 °F 23.7 °F 28.6 °F 82% 30.13 in 10.0 mi NNE 15.0 mph - N/A   Partly Cloudy
9:02 AM 33.8 °F 24.3 °F 28.4 °F 81% 30.12 in 10.0 mi NE 13.8 mph - N/A   Mostly Cloudy
9:55 AM 34.3 °F 24.2 °F 28.4 °F 79% 30.13 in 10.0 mi ENE 16.1 mph - N/A   Overcast
10:55 AM 36.0 °F 26.7 °F 29.7 °F 78% 30.12 in 10.0 mi NE 15.0 mph - N/A   Overcast
11:55 AM 36.5 °F 29.2 °F 29.3 °F 75% 30.09 in 10.0 mi NE 10.4 mph - N/A   Overcast
12:55 PM 37.2 °F 28.7 °F 30.0 °F 75% 30.04 in 10.0 mi NE 13.8 mph - N/A   Overcast
1:55 PM 37.4 °F 28.9 °F 29.3 °F 73% 29.98 in 10.0 mi NE 13.8 mph - N/A   Overcast
2:55 PM 37.4 °F 29.3 °F 30.0 °F 75% 29.97 in 10.0 mi NE 12.7 mph - N/A   Overcast
3:55 PM 37.2 °F 28.3 °F 29.8 °F 75% 29.96 in 10.0 mi NE 15.0 mph - N/A   Overcast
4:55 PM 37.2 °F 27.6 °F 30.0 °F 75% 29.95 in 10.0 mi NE 17.3 mph - N/A   Overcast
5:40 PM 37.4 °F 29.3 °F 30.2 °F 75% 29.96 in 10.0 mi NE 12.7 mph 20.7 mph N/A   Light Drizzle
5:55 PM 36.3 °F 27.1 °F 32.4 °F 86% 29.95 in 8.0 mi NNE 15.0 mph - 0.01 in Rain Light Rain
5:59 PM 35.6 °F 25.9 °F 32.0 °F 87% 29.94 in 8.0 mi NNE 16.1 mph - N/A Rain Rain
6:12 PM 35.6 °F 25.5 °F 33.8 °F 93% 29.93 in 8.0 mi NNE 17.3 mph - N/A   Overcast
6:55 PM 35.1 °F 24.5 °F 34.2 °F 97% 29.90 in 7.0 mi NNE 18.4 mph - 0.04 in Rain Light Rain
7:26 PM 35.6 °F 26.2 °F 33.8 °F 93% 29.90 in 4.0 mi NE 15.0 mph - N/A Rain Rain
7:47 PM 33.8 °F 23.2 °F 33.8 °F 100% 29.87 in 4.0 mi NE 17.3 mph - N/A Rain Light Rain
7:50 PM 33.8 °F 23.5 °F 33.8 °F 100% 29.87 in 5.0 mi NE 16.1 mph - N/A Rain Light Rain
7:55 PM 34.5 °F 24.1 °F 34.3 °F 99% 29.87 in 5.0 mi NE 17.3 mph - 0.10 in   Overcast
8:30 PM 33.8 °F 22.8 °F 33.8 °F 100% 29.84 in 5.0 mi NE 18.4 mph 26.5 mph N/A Rain Light Rain
8:34 PM 33.8 °F 22.5 °F 33.8 °F 100% 29.83 in 4.0 mi NE 19.6 mph 25.3 mph N/A Rain Rain
8:51 PM 33.8 °F 21.9 °F 33.8 °F 100% 29.82 in 5.0 mi NE 21.9 mph 28.8 mph N/A Rain Light Rain
8:55 PM 34.5 °F 24.1 °F 34.3 °F 99% 29.82 in 5.0 mi NE 17.3 mph 27.6 mph 0.07 in Rain Light Rain
9:19 PM 35.6 °F 24.0 °F 33.8 °F 93% 29.78 in 7.0 mi NE 23.0 mph 28.8 mph N/A   Overcast
9:31 PM 35.6 °F 23.4 °F 33.8 °F 93% 29.75 in 4.0 mi NE 25.3 mph 31.1 mph N/A   Overcast
9:48 PM 35.6 °F 23.2 °F 35.6 °F 100% 29.71 in 6.0 mi NE 26.5 mph 34.5 mph N/A   Overcast
9:55 PM 34.9 °F 21.5 °F 34.9 °F 100% 29.70 in 10.0 mi NE 29.9 mph 35.7 mph 0.04 in   Overcast
10:26 PM 35.6 °F 24.0 °F 35.6 °F 100% 29.70 in 9.0 mi NE 23.0 mph 31.1 mph N/A   Light Drizzle
10:49 PM 35.6 °F 23.4 °F 35.6 °F 100% 29.67 in 5.0 mi NE 25.3 mph 34.5 mph N/A   Overcast
10:54 PM 35.6 °F 23.7 °F 35.6 °F 100% 29.67 in 4.0 mi NE 24.2 mph 34.5 mph N/A   Overcast
10:55 PM 35.6 °F 23.7 °F 35.6 °F 100% 29.67 in 4.0 mi NE 24.2 mph 34.5 mph 0.01 in   Overcast
10:59 PM 35.6 °F 23.7 °F 35.6 °F 100% 29.67 in 5.0 mi ENE 24.2 mph 31.1 mph N/A   Overcast
11:05 PM 35.6 °F 24.0 °F 35.6 °F 100% 29.65 in 8.0 mi NE 23.0 mph 34.5 mph N/A Rain Light Rain
11:12 PM 35.6 °F 24.8 °F 35.6 °F 100% 29.65 in 9.0 mi NE 19.6 mph 35.7 mph N/A   Overcast
11:19 PM 35.6 °F 24.2 °F 35.6 °F 100% 29.64 in 9.0 mi ENE 21.9 mph 32.2 mph N/A   Overcast
11:29 PM 35.6 °F 24.5 °F 35.6 °F 100% 29.62 in 9.0 mi ENE 20.7 mph 28.8 mph N/A Rain Light Rain
11:37 PM 35.6 °F 23.7 °F 35.6 °F 100% 29.60 in 8.0 mi ENE 24.2 mph 33.4 mph N/A Rain Light Rain
11:47 PM 35.6 °F 24.2 °F 35.6 °F 100% 29.59 in 10.0 mi ENE 21.9 mph 33.4 mph N/A   Light Drizzle
11:49 PM 35.6 °F 24.5 °F 35.6 °F 100% 29.59 in 10.0 mi ENE 20.7 mph 29.9 mph N/A   Light Drizzle
11:55 PM 36.0 °F 25.3 °F 36.0 °F 100% 29.58 in 10.0 mi ENE 19.6 mph 29.9 mph 0.02 in   Light Drizzle